Olympia, WA
on Tuesday, December 25, 2012

Tuesday
Previous Day Next Day
Daily Summary
 ActualAverageRecord
Temperature
Mean Temperature °F 38°F  
Max Temperature 37°F 44°F 61°F (1980)
Min Temperature 32°F 33°F 17°F (1962)
Degree Days
Heating Degree Days 30 27  
Month to date heating degree days 611 664  
Since 1 July heating degree days 1998 2109  
Cooling Degree Days 0 0  
Month to date cooling degree days 0 0  
Year to date cooling degree days 82 106  
Moisture
Dew Point 35°F   
Average Humidity 98    
Maximum Humidity 100    
Minimum Humidity 96    
Precipitation
Precipitation 0.62 in 0.24 in 2.00 in (1980)
Month to date precipitation 9.40 6.09  
Year to date precipitation 59.25 48.63  
Wind
Wind Speed 2 mph   
Max Wind Speed 7 mph   
Max Gust Speed 10 mph   
Visibility 3 miles   
Events Fog , Rain , Snow   

Key: T is trace of precipitation, MM is missing value
Source: NWS Daily Summary
Time(PST)TemperatureDew PointHumidity Pressure Visibility Wind DirectionWind SpeedGust SpeedPrecipitationEvents Conditions
12:09 AM 34.0°F 33.1°F 96% 30.03 in 1.5 miles Calm Calm - N/A   Overcast
12:18 AM 34.0°F 33.1°F 96% 30.03 in 2.5 miles Calm Calm - N/A   Overcast
12:30 AM 34.0°F 34.0°F 100% 30.02 in 3.0 miles Calm Calm - N/A   Overcast
12:54 AM 34.0°F 34.0°F 100% 30.01 in 5.0 miles NNE 3.5 mph - N/A   Overcast
1:54 AM 35.1°F 35.1°F 100% 29.99 in 7.0 miles Calm Calm - N/A   Overcast
2:54 AM 34.0°F 34.0°F 100% 29.96 in 4.0 miles Calm Calm - N/A   Overcast
3:54 AM 35.1°F 34.0°F 96% 29.92 in 5.0 miles Calm Calm - 0.00 in Rain Light Rain
4:31 AM 35.1°F 35.1°F 100% 29.88 in 4.0 miles Calm Calm - 0.01 in Rain Light Rain
4:54 AM 36.0°F 35.1°F 97% 29.87 in 3.0 miles Calm Calm - 0.02 in Rain Light Rain
5:54 AM 36.0°F 35.1°F 97% 29.83 in 4.0 miles Calm Calm - 0.09 in Rain Light Rain
6:13 AM 35.1°F 34.0°F 96% 29.81 in 5.0 miles Calm Calm - 0.03 in Rain Light Rain
6:30 AM 35.1°F 33.1°F 92% 29.80 in 4.0 miles Calm Calm - 0.05 in Snow Light Snow
6:40 AM 34.0°F 33.1°F 96% 29.79 in 2.0 miles Calm Calm - 0.07 in Snow Light Snow
6:54 AM 33.1°F 32.0°F 96% 29.79 in 1.5 miles NNW 3.5 mph - 0.08 in Snow Light Snow
7:01 AM 33.1°F 32.0°F 96% 29.78 in 1.2 miles NNW 3.5 mph - 0.02 in Snow Light Snow
7:22 AM 32.0°F 32.0°F 100% 29.76 in 1.2 miles North 4.6 mph - 0.08 in Snow Light Snow
7:29 AM 32.0°F 32.0°F 100% 29.75 in 1.8 miles North 4.6 mph - 0.11 in Snow Light Snow
7:32 AM 32.0°F 32.0°F 100% 29.75 in 2.0 miles North 4.6 mph - 0.11 in Snow Light Snow
7:38 AM 33.1°F 32.0°F 96% 29.75 in 3.0 miles North 5.8 mph - 0.14 in Snow Light Snow
7:46 AM 33.1°F 32.0°F 96% 29.74 in 3.0 miles North 5.8 mph - 0.16 in Snow Light Snow
7:54 AM 33.1°F 32.0°F 96% 29.75 in 3.0 miles North 6.9 mph - 0.17 in Snow Light Snow
8:54 AM 33.1°F 32.0°F 96% 29.72 in 4.0 miles North 5.8 mph - 0.09 in Rain Light Rain
9:54 AM 33.8°F 33.8°F 100% 29.70 in 3.0 miles Calm Calm - N/A Rain Light Rain
9:55 AM 33.1°F 33.1°F 100% 29.70 in 3.0 miles Calm Calm - 0.00 in Rain Light Rain
10:54 AM 34.0°F 33.1°F 96% 29.69 in 3.0 miles NW 4.6 mph - 0.07 in Rain Light Rain
11:54 AM 34.0°F 34.0°F 100% 29.68 in 3.0 miles NNW 4.6 mph - 0.04 in Rain Light Rain
12:41 PM 35.1°F 35.1°F 100% 29.67 in 5.0 miles Calm Calm - 0.01 in   Overcast
12:52 PM 35.6°F 33.8°F 93% 29.67 in 6.0 miles Calm Calm - 0.01 in   Overcast
12:54 PM 35.1°F 34.0°F 96% 29.68 in 6.0 miles Calm Calm - 0.01 in   Overcast
1:25 PM 35.1°F 35.1°F 100% 29.67 in 5.0 miles Calm Calm - 0.00 in   Overcast
1:54 PM 35.1°F 35.1°F 100% 29.68 in 6.0 miles NNE 4.6 mph - 0.00 in   Overcast
2:54 PM 36.0°F 35.1°F 97% 29.67 in 5.0 miles NNE 6.9 mph - 0.00 in   Overcast
3:54 PM 37.0°F 37.0°F 100% 29.67 in 3.0 miles North 3.5 mph - N/A   Overcast
4:54 PM 36.0°F 36.0°F 100% 29.68 in 3.0 miles West 3.5 mph - 0.00 in   Overcast
5:24 PM 36.0°F 36.0°F 100% 29.67 in 2.5 miles Calm Calm - N/A   Overcast
5:38 PM 36.0°F 36.0°F 100% 29.66 in 1.2 miles Calm Calm - N/A   Overcast
5:51 PM 35.6°F 35.6°F 100% 29.66 in 0.8 miles Calm Calm - N/A   Mist
5:54 PM 36.0°F 36.0°F 100% 29.67 in 0.8 miles Calm Calm - N/A   Mist
6:04 PM 36.0°F 36.0°F 100% 29.67 in 1.0 miles Calm Calm - N/A   Mist
6:15 PM 36.0°F 36.0°F 100% 29.67 in 1.2 miles Calm Calm - N/A   Overcast
6:28 PM 36.0°F 36.0°F 100% 29.66 in 0.8 miles Calm Calm - N/A   Mist
6:31 PM 36.0°F 36.0°F 100% 29.66 in 0.8 miles Calm Calm - N/A   Overcast
6:42 PM 36.0°F 36.0°F 100% 29.66 in 1.0 miles Calm Calm - 0.00 in Rain Light Rain
6:51 PM 35.6°F 35.6°F 100% 29.66 in 0.8 miles Calm Calm - 0.00 in Rain Light Rain
6:54 PM 36.0°F 36.0°F 100% 29.67 in 0.8 miles Calm Calm - 0.00 in Rain Light Rain
7:06 PM 36.0°F 35.1°F 97% 29.66 in 0.8 miles Calm Calm - 0.00 in Rain Light Rain
7:22 PM 35.1°F 35.1°F 100% 29.67 in 0.8 miles WSW 3.5 mph - 0.00 in   Overcast
7:26 PM 36.0°F 35.1°F 97% 29.67 in 1.0 miles Calm Calm - 0.00 in   Overcast
7:38 PM 36.0°F 36.0°F 100% 29.67 in 1.5 miles Calm Calm - 0.00 in   Overcast
7:45 PM 36.0°F 36.0°F 100% 29.66 in 1.2 miles Calm Calm - 0.00 in   Overcast
7:54 PM 36.0°F 36.0°F 100% 29.67 in 1.5 miles Calm Calm - 0.00 in   Overcast
8:01 PM 36.0°F 35.1°F 97% 29.67 in 1.8 miles NW 3.5 mph - N/A   Overcast
8:08 PM 36.0°F 36.0°F 100% 29.67 in 3.0 miles Calm Calm - N/A   Overcast
8:34 PM 36.0°F 36.0°F 100% 29.67 in 4.0 miles Calm Calm - N/A   Overcast
8:54 PM 36.0°F 36.0°F 100% 29.68 in 4.0 miles Calm Calm - N/A   Overcast
9:20 PM 36.0°F 36.0°F 100% 29.68 in 5.0 miles Calm Calm - N/A   Overcast
9:47 PM 36.0°F 36.0°F 100% 29.69 in 1.8 miles Calm Calm - N/A   Overcast
9:54 PM 36.0°F 36.0°F 100% 29.70 in 1.0 miles Calm Calm - N/A   Overcast
10:02 PM 36.0°F 36.0°F 100% 29.69 in 0.8 miles Calm Calm - N/A   Overcast
10:30 PM 36.0°F 36.0°F 100% 29.69 in 0.5 miles Calm Calm - N/A Fog Fog
10:54 PM 37.0°F 37.0°F 100% 29.71 in 0.8 miles Calm Calm - N/A   Overcast
11:26 PM 37.0°F 37.0°F 100% 29.70 in 1.5 miles Calm Calm - N/A   Overcast
11:44 PM 37.0°F 37.0°F 100% 29.70 in 2.0 miles Calm Calm - N/A   Overcast
11:54 PM 37.0°F 37.0°F 100% 29.71 in 3.0 miles Calm Calm - N/A   Overcast
Moon Phase
Dec. 25 Dec. 28 Jan. 04 Jan. 11 Jan. 18
Sunrise:07:56 AM (PST) Moon Rise:02:42 PM (PST)12/25
Sunset:04:27 PM (PST) Moon Set:05:30 AM (PST)12/25

Copyright © 2014 The Weather Underground, Inc.